Race Results for
Carrerra Grande MBAA Race Series #1
Casa Grande, AZ
(Event Information)
View By:
This is a non-competitive event
Cross Country on 01/29/2000

Note: Ranking points are NOT upgrade points. An explanation of ranking points can be found here.


Men - Junior - JR - JuniorX

 Place NameCity, StateTime USAC #BibTeam
1 Nathan Mitchell   Phoenix, AZ2:09:04 111851   
2 TRISTAN SIEVE   Asheville, NC2:20:42 146940   
4 Robert Chenal   Carefree, AZ2:26:38 109683   
5 Josh Gibbons   Cottonwood, AZ 145126   
7 Chad Cornell   Scottsdale, AZ 140859   

Men - Pro - Master

 Place NameCity, StateTime USAC #BibTeam
1 David Wiens   Gunnison, CO1:52:00 38160   
2 Scott Leonard   Vail, AZ1:59:48 107687   

Men - Pro - Senior

 Place NameCity, StateTime USAC #BibTeam
1 Leonard Tullous   Tucson, AZ1:50:25 36057   
2 Kevin Clegg   Tucson, AZ1:55:10 103663   
3 Jacob Rubelt   Tucson, AZ1:55:52 79833   
4 TERRENCE WYMAN   Arvada, CO1:56:50 16554   
5 John Benson   Flagstaff, AZ1:58:15 98924   
6 CODY WAITE   Elizabethtown, PA2:00:07 126151   
7 John Vaught   Tucson, AZ2:01:54 106107   
8 Chad Hummer   Phoenix, AZ2:02:44 17115   
9 Todd Dellysse   Huntington, NY2:03:34 9135   
11 Matt Baruch   Brooklyn, NY2:06:12 127141   
12 Scott Arnold   Phoenix, AZ2:09:32 1957   
14 David Herbold   Flagstaff, AZ 88165   
15 Jeremy Bounds   Scottsdale, AZ 85352   

Men - EX - Senior - 19-27

 Place NameCity, StateTime USAC #BibTeam
1 Tim Bolton   Tucson, AZ2:03:57 117086   
2 Sean Kennedy   Tempe, AZ2:04:08 117470   
3 Joshua Powers   Phoenix, AZ2:04:16 91975   
4 Brandon Johnson   Queen Creek, AZ2:04:56 108140   
5 Armando Neri   2:05:39 145365   
6 Andrew Mesesan   Salida, CO2:06:28 123001   
7 ERIC NICHOLAS   Colorado Spgs, CO2:07:39 126106   
8 Steven Schaefer   Tucson, AZ2:08:13 78017   
9 Scott Keller   Sedona, AZ2:08:41 125723   
10 Eric Atwood   Sammamish, WA2:12:01 117706   
12 Jason Suarez   Anthem, AZ2:12:38 126232   
13 NATHAN WALLACE   Cortlandt Manor, NY2:18:11 28089   
14 Andrew Stevens   Flagstaff, AZ2:18:29 132378   
15 Brad VanOrden   Prescott, AZ2:21:35 140292   
16 Amon Pease   Point Arena, CA2:21:46 82723   
17 Ryan Gibson   Las Vegas, NV2:27:24 142890   
18 NATHAN SHOPE   Phoenix, AZ2:31:27 126226   
19 Jose Iniguez   Tucson, AZ 17388   
20 John Salskov   Tempe, AZ 113251   
21 Benjamin McKee   Tucson, AZ 108193   
22 LEWIS ELLIOT   Tucson, AZ 58441   
23 ZAC TUCKER   Falmouth, MA 133714   
24 Mark Stiles   Tempe, AZ 139453   
25 Toby Tsosie   El Paso, TX 127320   

Men - EX - Senior - 28-34

 Place NameCity, StateTime USAC #BibTeam
1 MAX MORRIS   Kennesaw, GA2:01:50 125860   
3 John Koenig   Phoenix, AZ2:03:43 121287   
4 STEPHEN MARTIN   Rochester Hills, MI2:05:02 153648   
6 Anthony Stroup   Albuquerque, NM2:05:51 88449   
7 Mark McGill   Tempe, AZ2:06:15 109692   
8 Brock Boring   Scottsdale, AZ2:06:40 134433   
9 KIP MOYER   Santa Cruz, CA2:07:40 22451   
10 Robert Johnson   Mesa, AZ2:08:04 128046   
11 PETER MAGLIDT   Chandler, AZ2:08:58 107333   
12 Grant Parris   Henderson, NV2:09:29 140858   
13 MATT JOHNSON   Oklahoma City, OK2:10:43 135009   
14 LUCIAN HAND   Boston, MA2:11:46 37574   
15 Dan Esquivel   Scottsdale, AZ2:12:08 78230   
16 Karl Waak   Clarkdale, AZ2:15:24 36840   
17 Rene Ortega   Tucson, AZ2:17:20 127318   
19 KEVIN BITTEN   Corvallis, OR2:24:12 37820   
20 Estevan Sanchez   Flagstaff, AZ2:27:44 152919   
21 CORY FAGERHOLM   Wadmalaw Island, SC2:31:14 53510   
22 Brian Siebert   Tempe, AZ2:39:22 32604   
23 ROBERT MIDDLEMORE   Albany, OR 150385   
24 Joel Davis   N Las Vegas, NV 88515   

Men - EX - Master - 30-99

 Place NameCity, StateTime USAC #BibTeam
1 STERLING GOIN   Albuquerque, NM1:15:02 56626   
2 Dale Hoffman   Lk Havasu Cty, AZ1:38:29 137669   
3 FRANK LIVELY   Reading, MA 24914   

Men - EX - Master - 35-39

 Place NameCity, StateTime USAC #BibTeam
1 JOHN BARTH   Tolland, CT2:02:29 18176   
3 Luke Nelson   Chandler, AZ2:03:39 25865   
5 Brent Steiner   Mesa, AZ2:07:19 61688   
6 Richard Moore   Tucson, AZ2:08:09 42022   
7 Andre Goguen   Tucson, AZ2:10:19 40118   
8 Stephen Townsley   Santa Fe, NM2:10:36 35832   
9 Pete Kueffner   Las Vegas, NV2:10:38 19949   
10 Jeffrey Welch   Lenoir, NC2:13:17 37647   
11 Doug Boykin   Bayfield, CO2:15:52 142649   
12 Tim Hohmann   Phoenix, AZ2:20:11 43003   
14 Michael Thiele   Chandler, AZ 103312   

Men - EX - Master - 40-44

 Place NameCity, StateTime USAC #BibTeam
1 Chuck Wheeler   Scottsdale, AZ2:02:46 37895   
2 Michael Hines   Escondido, CA2:03:10 125061   
3 Richard Hanning   Tucson, AZ2:06:08 142275   
4 Jeff Armour   Phoenix, AZ2:06:13 1903   
5 GARY DEWEESE   San Diego, CA2:08:33 128738   
6 James Kirk   Tucson, AZ2:09:42 19256   
9 Donald Lewis   Tucson, AZ2:16:09 21068   
10 Ricky Eischen   Mesa, AZ2:17:39 87669   
11 KEITH TOMEI   Louisville, KY2:24:20 7044   

Men - EX - Master - 45-54

 Place NameCity, StateTime USAC #BibTeam
1 GARY STRABALA   Powell, WY1:36:09 13326   
2 Wayne Gorry   Payson, AZ1:39:50 13741   
3 William Decker   Chandler, AZ1:42:07 9020   
4 William Sandercock   Phoenix, AZ1:42:45 31208   
5 KEN MILLER   Apple Valley, MN1:43:29 126113   
6 EDDIE ELLIS   Dallas, TX1:45:07 113562   
7 Scott Lideen   Phoenix, AZ1:45:12 142637   
8 MIKE KUNNECKE   Passaic, NJ1:46:23 165849   
9 Mark Blackman   Flagstaff, AZ1:46:49 3846   
10 Richard Brown   Phoenix, AZ1:48:01 121736   
11 ROLPHE WHITE   Mill Valley, CA1:52:54 21403   
12 Paul Cornell   Scottsdale, AZ1:54:27 121871   
13 BRENT FISCHER   Tempe, AZ1:56:52 154516   
14 Robert Williams   Scottsdale, AZ1:57:39 125738   

Men - SP - Senior - 19-27

 Place NameCity, StateTime USAC #BibTeam
2 Chris Whaley   Phoenix, AZ1:34:35 127319   
3 Sheldon Lindsey   Phoenix, AZ1:36:38 155585   
4 Sean Aske   Phoenix, AZ1:38:26 153846   
7 Jonah Sperando   Colorado Springs, CO1:40:12 141089   
8 Jason Meininger   Durango, CO1:43:06 155022   
10 Nicholas Cirincione   Colorado Springs, CO1:43:53 142652   
11 Brian Smith   Phoenix, AZ1:43:59 142594   
12 Robert Gibson   Tucson, AZ1:45:04 88270   
13 Soren Ericksen   Tempe, AZ1:45:12 109029   
15 DAVID BOGAN   1:46:58   
16 Brian Jones   Tucson, AZ1:47:01 155583   
19 Aaron Richardson   Tempe, AZ1:48:54 155570   
23 Jason Vawter   Scottsdale, AZ1:51:49 142336   
24 MICHAEL MCGUINN   Rohnert Park, CA1:52:38 5943   
25 Nick Kollar   Sierra Vista, AZ1:52:40 85544   
28 Chase Waddell   Oro Valley, AZ1:53:53 142647   
29 Nathan Andrews   Phoenix, AZ1:54:25 42004   
30 Paul Toufar   Hillsboro, OR1:54:27 155287   
31 Kamden Reedy   Mesa, AZ1:55:01 155036   
32 Kyle Huntress   Cave Creek, AZ1:55:40 155024   
33 Don Eldridge   Mesa, AZ1:56:53 157555   
35 Heath Pyle   Gilbert, AZ2:04:42 142308   
36 CHRIS PEREZ   Rochester, NY2:04:42 152344   
40 Ryan Stuber   Flagstaff, AZ 155563   
42 Marc McCombs   Gilbert, AZ 135602   
44 WILLIAM HEIDT   Phoenix, AZ 155903   

Men - SP - Senior - 28-34

 Place NameCity, StateTime USAC #BibTeam
1 Dennis Fernandes   Phoenix, AZ1:35:47 154512   
2 Daniel King   Phoenix, AZ1:35:47 154515   
3 Robert Shaver   El Paso, TX1:36:13 56061   
4 Daron Brotherton   Glendale, AZ1:36:23 155523   
7 MICHAEL MIDDLETON   Hemet, CA1:37:40 165156   
8 Thomas Pfafman   Phoenix, AZ1:37:56 113407   
9 Ethan Granger   Scottsdale, AZ1:38:26 109462   
10 Randy Zima   Gilbert, AZ1:39:26 154508   
11 Paul Von Boeck   Tempe, AZ1:40:28 80475   
12 Anthony Piazza   Mesa, AZ1:41:12 108192   
13 Trever Bushnell   Phoenix, AZ1:41:14 5663   
14 Jeffrey Traynor   Indian Hills, CO1:41:14 129176   
18 John Velasco   Chandler, AZ1:43:09 144475   
20 Tyson Manuel   Scottsdale, AZ1:43:19 155895   
21 Gerard Prosnier   Scottsdale, AZ1:43:24 142188   
22 Jeff Yapuncich   Tempe, AZ1:43:49 108149   
23 KEITH ATKINS   Manhattan Bch, CA1:43:50 117114   
24 Tom Spence   Tucson, AZ1:44:03 109461   
25 Jeremy Olberding   Phoenix, AZ1:44:15 82142   
26 Steve Madole   Kingman, AZ1:44:19 88514   
27 Brad Hiland   Rolling Hills Estates, CA1:45:00 103163   
29 Steven Rivers   Phoenix, AZ1:46:19 121446   
30 Steven Bower   Phoenix, AZ1:46:42 142451   
31 JOHN KIVETT   Mission Viejo, CA1:46:52 150333   
32 Derek Parker   Peoria, AZ1:47:04 156753   
33 Robert Bennett   Tucson, AZ1:47:26 144712   
34 Cameron Bunt   Chandler, AZ1:47:31 154418   
36 Thomas Cianelli   Helotes, TX1:49:10 6919   
37 CHRIS POOLE   Washington, DC1:49:56 171078   
39 Gregory Landers   Redding, CA1:51:21 129054   
40 Chris Bowers   Wetumpka Al, AL1:51:30 156250   
41 Mark Ahn   Phoenix, AZ1:51:44 142299   
42 Anthony Martinez   Tempe, AZ1:51:56 142667   
43 Charlie Ferer   Scottsdale, AZ1:54:38 125608   
45 HOWARD SCHULER   Paxton, MA1:56:05 147340   
48 Tim Phoenix   Pepperell, MA2:00:19 127897   
49 Jon Ewing   Phoenix, AZ 140269   

Men - SP - Master - 30-99

 Place NameCity, StateTime USAC #BibTeam
1 BOB NICKELSEN   Louisville, CO1:19:00 164755   
2 Terry Brown   Sierra Vista, AZ1:24:16 5164   
3 Dan Bingham   Cave Creek, AZ1:28:52 108682   
4 Henry Adams   Tucson, AZ1:32:53 1137   

Men - SP - Master - 35-39

 Place NameCity, StateTime USAC #BibTeam
1 Michael Bridschge   Coolidge, AZ1:35:55 48992   
2 Eric Wilkey   Casa Grande, AZ1:36:11 140781   
3 Daniel Mills   Avon, CO1:40:23 75854   
5 Ernesto Gomez   1:41:09 145366   
6 ED NEILSON   Idaho Falls, ID1:41:43 25738   
7 Timothy Wilson   Phoenix, AZ1:42:57 126254   
9 Paul Durazo   Chandler, AZ1:43:08 142310   
11 Richard Bylsma   Casa Grande, AZ1:44:03 125711   
12 PAUL CASEY   Encino, CA1:44:53 20775   
13 Mark Venti   Mesa, AZ1:44:59 149570   
15 JOHN MD WHITESIDE   Redding, CA 170845   
17 Paul Torcoletti   Tempe, AZ1:47:14 126035   
18 Steven Venable   Scottsdale, AZ1:47:20 41865   
19 Arthur MacFarland   Cave Creek, AZ1:47:42 79108   
20 Tad Fagerholm   Phoenix, AZ1:47:46 11161   
21 George Sperry   Phoenix, AZ1:48:05 118062   
22 Mark Bergenthal   Mesa, AZ1:48:07 3419   
23 Lee Topic   Tempe, AZ1:48:37 125760   
24 Cory Hove   Gilbert, AZ1:49:15 141110   
25 Michael Abad   Phoenix, AZ1:50:12 43295   
26 Rodney Larkin   Phoenix, AZ1:50:40 129125   
27 Scott Anthony   Phoenix, AZ1:51:07 107969   
28 Donald Magdon   Phoenix, AZ 107957   
29 Andrew Karapelou   Phoenix, AZ1:51:21 142280   
30 Tom Phielix   Tucson, AZ1:51:54 28021   
31 John Birkett   Chandler, AZ1:53:46 140208   
32 Randy Drayer   Lake Havasu Cty, AZ1:53:50 125289   
33 David Irza   Waltham, MA1:54:57 126379   
35 SCOTT MYDOCK   Hilliard, OH1:56:15 152222   
37 William Phillips   Tucson, AZ1:59:13 125607   
38 Paul Keene   Flagstaff, AZ1:59:42 145410   
39 MARK FASCZEWSKI   Orlando, FL1:59:57 159207   
41 VINCENT HUNT   Ketchum, ID 43771   
42 Michael Nixon   Glendale, AZ 144457   
44 KYLE FONDURULIA   Gilford, NH 71444   

Men - SP - Master - 40-44

 Place NameCity, StateTime USAC #BibTeam
1 ALEX BRAKMO   1:39:15   
2 Eric Fairfield   Tucson, AZ1:41:31 142268   
4 Michael Marinshaw   Scottsdale, AZ1:41:48 126238   
5 Dan Sanderson   Phoenix, AZ1:45:16 31233   
6 Joe Hohmann   Phoenix, AZ1:45:17 16487   
7 JOE BURTONI   Tijeras, NM1:46:00 21753   
8 Kent Taylor   Casa Grande, AZ1:46:47 81287   
9 Michael Bolding   Scottsdale, AZ1:49:14 4129   
10 Dan Kravig   Scottsdale, AZ1:50:48 19798   
11 Robert Boudreau   Glendale, AZ1:54:06 87666   
12 Andy Geiger   Phoenix, AZ1:54:40 13010   
13 DANIEL KURTH   Waterbury Ctr, VT1:58:24 18777   
14 Artie Hauer   Phoenix, AZ2:00:56 144511   
15 Robert Hammond   Chandler, AZ2:01:23 87649   
16 Mark Shaw   Scottsdale, AZ2:02:32 32346   
17 Manny Flores   Chandler, AZ2:03:22 142449   
18 TIM SPICER   Lenox, MA2:10:04 109931   
20 GLENN GLASS   Baltimore, MD 21597   
21 JOE LOZON   Ft. Bragg, NC 153864   

Men - SP - Master - 45-54

 Place NameCity, StateTime USAC #BibTeam
1 John Schaefer   Prescott, AZ1:07:31 141955   
3 Richard Bauer   Phoenix, AZ1:09:17 75053   
4 Tony Bartholoma   Phoenix, AZ1:09:19 2771   
5 Michael Jones   Oro Valley, AZ1:09:24 133777   
8 Brad Smith   Highlands Ranch, CO1:12:12 107723   
9 Keene Johnson   Phoenix, AZ1:12:41 17979   
10 Stephen Hughes   Scottsdale, AZ1:12:51 141111   
11 Michael See   Gilbert, AZ1:13:48 125768   
12 KENNY KING   Anderson, SC1:14:53 94154   
13 John Fleming   Tucson, AZ1:15:30 155580   
14 Don Rackey   Gilbert, AZ1:15:50 140203   
15 Seth Dawson   Fountain Hills, AZ1:16:00 83280   
16 Ted Falkowski   Tempe, AZ1:16:14 128032   
18 Robert Meyer   Phoenix, AZ1:18:14 90461   
19 Gary Epple   Tucson, AZ1:19:22 109698   
20 Clifford Hummer   Gilbert, AZ1:19:46 40394   
21 Kenneth Douglas   Casa Grande, AZ1:20:35 142646   
22 Warren Swope   Phoenix, AZ1:21:37 107732   
23 LEONARD TULLOUS SR   Queen Creek, AZ1:21:39 107735   
24 Frank Loftus   Glendale, AZ1:23:14 85413   
25 Warren Bezanson   Tucson, AZ1:23:24 109466   
26 CHUCK LORENZINI   Boulder, CO1:23:25 37628   
28 Charles King   Phoenix, AZ1:26:40 19154   
29 Rocco Santigati   Mesa, AZ1:30:17 127872   

Men - BG - Senior - 19-24

 Place NameCity, StateTime USAC #BibTeam
8 Adrian Chavez   Scottsdale, AZ1:25:10 155587   

Men - BG - Senior - 25-29

 Place NameCity, StateTime USAC #BibTeam
10 Bryan Jensen   Phoenix, AZ1:14:33 78822   
11 Matt French   Phoenix, AZ1:14:33 157544   
12 Chris Hagen   Mesa, AZ1:15:06 155930   
14 James Delaney   Phoenix, AZ1:18:35 100658   
19 Bradley Dunagan   Carlsbad, CA1:19:19 150962   
20 Joshua Person   Phoenix, AZ1:19:20 108584   
21 Noe Gamez   Tucson, AZ1:20:32 109697   
26 Tom Crosetti   Mesa, AZ1:21:30 156147   
33 James VanVorst   Phoenix, AZ1:25:29 142329   
38 Brandon Nelson   Phoenix, AZ1:27:43 142437   
45 Noah Perius   Yuma, AZ1:44:44 140290   

Men - BG - Senior - 30-34

 Place NameCity, StateTime USAC #BibTeam
1 Michael Gallivan   Phoenix, AZ1:09:36 155292   
6 Leif Robinson   Tucson, AZ1:15:21 155908   
24 Rick Boynton   Scottsdale, AZ1:20:16 142300   
36 GERALD BIEHLE   Wakefield, MA1:24:59 74056   
40 Steve Fisher   Tempe, AZ1:33:52 142668   

Men - BG - Master - 30-99

 Place NameCity, StateTime USAC #BibTeam
1 Charles Dell   Chandler, AZ1:23:14 106952   
5 CHUCK BOYER   Greenbrae, CA2:09:08 6531   

Men - BG - Master - 35-39

 Place NameCity, StateTime USAC #BibTeam
1 JACK MCCORMACK   Canton, OH1:11:38 146870   
3 Christopher Branson   Glendale, AZ1:12:50 155531   
8 Jeff Ferin   Chandler, AZ1:14:17 142284   
10 Jesse Ferrer   Star, ID1:14:26 165832   
11 JOHN FRITZ   Fenton, MO1:14:46 75196   
12 Scott Stewart   Peoria, AZ1:15:21 132794   
13 Carlos Zamora   Phoenix, AZ1:15:33 52255   
18 Ron Hart   Prescott, AZ1:18:17 153874   
25 Gus Garcia   Gilbert, AZ1:21:20 145140   
33 Christopher Macci   Phoenix, AZ1:27:02 88438   
40 Robert Schiltz   Tucson, AZ1:40:26 141095   
42 Eric Tollefson   Scottsdale, AZ1:47:47 109687   

Men - BG - Master - 40-44

 Place NameCity, StateTime USAC #BibTeam
1 Carl Noeding   Mesa, AZ1:12:20 155579   
2 Christopher Barkley   Mesa, AZ1:13:52 142314   
3 Jim Auwen   Mesa, AZ1:14:21 2119   
4 BRETT WILLIAMS   Phoenix, AZ1:16:15 28   
5 Frank Sortelli   Tucson, AZ1:16:54 118945   
6 Richard Sherlock   Phoenix, AZ1:17:27 155284   
8 David Cosenza   Tempe, AZ1:19:13 85597   
14 Stephen Noeding   Gilbert, AZ1:23:39 155552   
25 TONY VERGA   Chadds Ford, PA1:31:14 54529   
29 Moses Cruz   Tempe, AZ 132796   
30 Bryan Park   Glendale, AZ 88435   

Men - BG - Master - 45-54

 Place NameCity, StateTime USAC #BibTeam
4 RICHARD SURBER   Kalamazoo, MI1:19:43 80470   
5 Rick Scott   Chandler, AZ1:20:28 154874   
6 Wayne Fernandez   Prescott, AZ1:20:51 150970   
7 Daniel Garrett   Scottsdale, AZ1:20:52 126230   
11 Thomas Espey   Phoenix, AZ1:22:00 132409   
13 Brad Green   Greer, AZ1:23:05 13995   
16 Charles Wright   Phoenix, AZ1:25:26 106056   
18 Barry Redshaw   Phoenix, AZ1:25:59 42064   
19 Patrick McDermott   Chandler, AZ1:26:10 122713   
20 Rich Petrus   Scottsdale, AZ1:27:13 140692   
21 David Dorney   Phoenix, AZ1:27:18 154002   
24 David Stephen   Tucson, AZ1:29:47 109517   
26 Everett Beyer   Bosie, ID1:30:03 155191   
28 BERNIE LACOTTA   Riverside, CA1:31:45 54658   
37 William Dillard   Sierra Vista, AZ1:52:24 156548   
40 David Stevens   Phoenix, AZ 112051   

Women - Pro - Senior

 Place NameCity, StateTime USAC #BibTeam
1 Mary (Lanie) Mason   Paradise Valley, AZ1:42:00 83740   
2 Dorea Henderson   Incline Village, NV1:42:54 120766   
3 DARA MARKS   Flagstaff, AZ1:44:12 144461   
4 Nikki Garza   Flagstaff, AZ1:45:56 127628   
5 Gloria Cisneros   Tucson, AZ1:48:31 114615   

Women - EX - Senior - 19-27

 Place NameCity, StateTime USAC #BibTeam
1 Lynn Dabbous   Phoenix, AZ1:46:52 142269   
2 JENNIFER ANDERSON   Phoenix, AZ1:47:57 156145   
3 Sage Grossi   Tempe, AZ1:57:51 146177   

Women - EX - Senior - 28-34

 Place NameCity, StateTime USAC #BibTeam
1 Carie Wilson   Tempe, AZ1:51:02 126206   
2 Juliane Mortello   Durango, CO1:51:53 142393   
3 Colleen Venti   Mesa, AZ1:53:03 136875   
4 Victoria Christensen   Flagstaff, AZ1:54:33 115060   
5 Bryanna Leake   Sedona, AZ1:54:54 155934   
6 Kim Alred   Tucson, AZ1:56:10 135441   
8 Lila McFarland   Phoenix, AZ1:57:21 156249   
9 Alicia Nicholas   Tucson, AZ2:00:59 126221   
10 Michelle Thiry   Avondale, AZ 155299   
11 Alacia Hutto   Tucson, AZ 87640   

Women - EX - Master - 35-44

 Place NameCity, StateTime USAC #BibTeam
1 Carrie McCalvin   Phoenix, AZ1:52:11 155293   
2 Mona Brilz   Phoenix, AZ1:52:58 77504   
3 JANET KERBY   Sheridan, WY1:54:24 139880   
4 Holly Annala   Crested Butte, CO1:57:35 157089   
5 Carmen Bastek   Tempe, AZ1:58:18 2836   
6 Deborah Wilson   Flagstaff, AZ 135499   

Women - SP - Senior - 19-27

 Place NameCity, StateTime USAC #BibTeam
2 Spring Clegg   Tucson, AZ1:16:33 146109   

Women - SP - Senior - 28-34

 Place NameCity, StateTime USAC #BibTeam
1 Megan French   Phoenix, AZ1:14:23 157545   
3 Rochelle Scholz   Flagstaff, AZ1:17:39 155937   
5 KRISTEN GUZMAN   Tucson, AZ1:19:01 156754   
6 STEPHANY SATO   Avondale, AZ1:20:30 154051   
8 Angela Barclay   Tucson, AZ1:21:31 155598   
9 Michelle Weigman   Phoenix, AZ1:21:53 126794   
11 LISA PIVIN   West Palm Bch, FL2:04:26 125118   

Women - SP - Master - 35-44

 Place NameCity, StateTime USAC #BibTeam
1 MICHELLE FAIRFIELD   Tucson, AZ1:15:03 153169   
3 Valerie Staffield   Phoenix, AZ1:18:11 71581   
5 Wendy Macfarland   Chandler, AZ1:19:44 140863   
6 Brenda Oberman   Scottsdale, AZ1:20:29 142203   
8 Jodi Koller-Smee   Gilbert, AZ1:27:10 142202   
9 CATHERINE TUTTLE   Willits, CA1:28:59 90629   
10 Maria Spence   Tucson, AZ1:31:11 126758   
11 Candace Holloway   Phoenix, AZ1:35:08 110212   

Women - SP - Master - 45-54

 Place NameCity, StateTime USAC #BibTeam
2 Kay Tullous   Queen Creek, AZ1:41:19 107733   
3 Laurie Stephen   Tucson, AZ1:43:26 155548   

Women - BG - Senior - 19-27

 Place NameCity, StateTime USAC #BibTeam
6 Danielle DeCaro   Prescott Valley, AZ42:45:00 130465   
8 Rebecca Voltmer   San Carlos, CA45:03:00 155016   
11 Heather Feger   Flagstaff, AZ47:02:00 142303   

Women - BG - Senior - 28-34

 Place NameCity, StateTime USAC #BibTeam
1 Sheri Wallace   Tempe, AZ42:47:00 156153   

Women - BG - Master - 35-44

 Place NameCity, StateTime USAC #BibTeam
4 SHELLY GLASS   Phoenix, AZ45:07:00 164487   
5 Kim Hedden   Phoenix, AZ45:24:00 67991   
6 Cindy Mydock   Glendale, AZ45:39:00 106946   
15 Mary Burnett   Chandler, AZ52:40:00 142654   
18 Janet Brewster   Phoenix, AZ56:13:00 141234   

Women - BG - Master - 45-54

 Place NameCity, StateTime USAC #BibTeam
1 Lynda Fisher   Tempe, AZ50:55:00 140913   

Report missing or incorrect license numbers

Volkswagen
CUORESpyUSACDFSierra NevadaShimanoBonk BreakerOSMO
UCI USA Cycling is the official governing body for all disciplines of competitive cycling in the United States. The 501c3, membership-based organization aims both to achieve sustained success in international cycling competition and to grow competitive cycling in America while delivering an exceptional customer experience.
View Children's Online Privacy Protection Policy
US Olympic Committee